Location: Kalisz
(51.7636°N, 18.0893°E)
Time: 04:46:24
(UTC+01:00)

ISS - Visible Passes

Search period start: 24 November 2017 00:00
Search period end: 04 December 2017 00:00
Orbit: 402 x 407 km, 51.6° (Epoch: 24 November)

Date Brightness Start Highest point End Pass type
(mag) Time Alt. Az. Time Alt. Az. Time Alt. Az.
28 Nov -1.2 18:17:06 10° SSW 18:17:50 14° S 18:17:50 14° S visible
29 Nov -1.7 17:25:38 10° S 17:27:36 15° SE 17:27:45 15° SE visible
29 Nov -0.4 19:00:20 10° WSW 19:00:25 10° WSW 19:00:25 10° WSW visible
30 Nov -2.3 18:08:11 10° SW 18:10:15 29° SSW 18:10:15 29° SSW visible
01 Dec -2.4 17:16:12 10° SSW 17:19:00 26° SSE 17:20:01 22° ESE visible
01 Dec -0.8 18:51:53 10° WSW 18:52:40 16° WSW 18:52:40 16° WSW visible
02 Dec -1.7 16:24:32 10° S 16:26:47 17° SE 16:29:03 10° E visible
02 Dec -3.3 17:59:34 10° WSW 18:02:23 52° SSW 18:02:23 52° SSW visible
03 Dec -3.1 17:07:20 10° SW 17:10:27 42° SSE 17:12:04 23° E visible
03 Dec -1.2 18:43:30 10° W 18:44:42 21° W 18:44:42 21° W visible
